Location: *
(51.0333°S, 178.4667°E)
Time: 08:48:26
(UTC+00:00)

STARLINK - Pass Details

Date: 15 November 2019
Orbit: 529 x 530 km, 53.0° (Epoch: 07 December)

Event Time Altitude Azimuth Distance (km) Brightness Sun altitude
Rises 08:21:16 0° 283° (WNW) 2,668 7.7 -6.8°
Reaches altitude 10° 08:23:28 10° 281° (W) 1,782 6.8 -7.1°
Maximum altitude 08:27:31 79° 195° (SSW) 550 3.7 -7.5°
Drops below altitude 10° 08:31:36 10° 106° (ESE) 1,791 5.9 -8.0°
Sets 08:33:49 0° 105° (ESE) 2,684 6.8 -8.3°
